This demonstration page uses our WeatherBlox Daily Observations layout. Learn more.

Hourly Observations for March 2, 2016

Temp ( °F °C ) Dew Point ( °F °C ) Humidity (%) Winds ( mph kmh ) Pressure ( in mb ) Visibility ( mi km ) Precip ( " mm )
12:15 am 00:15 Cloudy 63 17 52 11 68 68 SSW 17 28 29.53 1000 10 16.09344 0 0
12:35 am 00:35 Cloudy 63 17 52 11 68 68 SSW 21 33 29.56 1001 10 16.09344 0 0
12:55 am 00:55 Cloudy with Rain 63 17 54 12 73 73 W 14 22 29.56 1001 10 16.09344 0 0
1:15 am 01:15 Cloudy with Light Rain 59 15 52 11 77 77 W 21 33 29.56 1001 10 16.09344 0 0
1:35 am 01:35 Cloudy with Light Drizzle 59 15 46 8 63 63 W 22 35 29.56 1001 10 16.09344 0 0
1:55 am 01:55 Cloudy with Light Rain 59 15 45 7 59 59 W 15 24 29.56 1001 10 16.09344 0 0
2:15 am 02:15 Cloudy 57 14 45 7 63 63 WSW 13 20 29.59 1002 10 16.09344 0 0
2:35 am 02:35 Cloudy 55 13 43 6 63 63 W 12 19 29.56 1001 10 16.09344 0 0
2:55 am 02:55 Cloudy 55 13 41 5 59 59 W 10 17 29.59 1002 10 16.09344 0 0
3:15 am 03:15 Cloudy 55 13 41 5 59 59 WNW 22 35 29.59 1002 10 16.09344 0 0
3:35 am 03:35 Mostly Cloudy 54 12 41 5 63 63 NW 28 44 29.59 1002 10 16.09344 0 0
3:55 am 03:55 Partly Cloudy 50 10 37 3 62 62 WNW 29 46 29.62 1003 10 16.09344 0 0
4:15 am 04:15 Clear 46 8 36 2 66 66 NW 22 35 29.65 1004 10 16.09344 0 0
4:35 am 04:35 Clear 45 7 32 0 61 61 NW 28 44 29.68 1005 10 16.09344 0 0
4:55 am 04:55 Clear 45 7 32 0 61 61 NW 20 31 29.71 1006 10 16.09344 0 0
5:15 am 05:15 Partly Cloudy 45 7 32 0 61 61 NW 15 24 29.74 1007 10 16.09344 0 0
5:35 am 05:35 Partly Cloudy 43 6 32 0 66 66 NW 25 41 29.77 1008 10 16.09344 0 0
5:55 am 05:55 Partly Cloudy 41 5 30 -1 66 66 NW 26 43 29.77 1008 10 16.09344 0 0
6:15 am 06:15 Mostly Cloudy 39 4 30 -1 70 70 WNW 24 39 29.8 1009 10 16.09344 0 0
6:35 am 06:35 Mostly Cloudy 37 3 28 -2 70 70 NW 25 41 29.83 1010 10 16.09344 0 0
6:55 am 06:55 Mostly Cloudy 37 3 28 -2 70 70 WNW 25 41 29.85 1011 10 16.09344 0 0
7:15 am 07:15 Cloudy 37 3 27 -3 65 65 NW 29 46 29.85 1011 10 16.09344 0 0
7:35 am 07:35 Cloudy 37 3 27 -3 65 65 NW 21 33 29.88 1012 10 16.09344 0 0
7:55 am 07:55 Cloudy 36 2 27 -3 70 70 NW 28 44 29.88 1012 10 16.09344 0 0
8:15 am 08:15 Cloudy 37 3 27 -3 65 65 NW 20 31 29.91 1013 10 16.09344 0 0
8:35 am 08:35 Cloudy 37 3 27 -3 65 65 NW 15 24 29.94 1014 10 16.09344 0 0
8:55 am 08:55 Cloudy 37 3 27 -3 65 65 NW 20 31 29.94 1014 10 16.09344 0 0
9:15 am 09:15 Cloudy 37 3 23 -5 56 56 NW 24 39 29.94 1014 10 16.09344 0 0
9:35 am 09:35 Cloudy 37 3 23 -5 56 56 NNW 18 30 29.97 1015 10 16.09344 0 0
9:55 am 09:55 Cloudy 37 3 23 -5 56 56 NW 18 30 29.97 1015 10 16.09344 0 0
10:15 am 10:15 Cloudy 36 2 21 -6 56 56 WNW 24 39 29.97 1015 10 16.09344 0 0
10:35 am 10:35 Cloudy 36 2 21 -6 56 56 NW 21 33 29.97 1015 10 16.09344 0 0
10:55 am 10:55 Cloudy 37 3 21 -6 52 52 NW 26 43 30 1016 10 16.09344 0 0
11:15 am 11:15 Cloudy 37 3 19 -7 48 48 NW 21 33 30 1016 10 16.09344 0 0
11:35 am 11:35 Cloudy 37 3 19 -7 48 48 NNW 21 33 30 1016 10 16.09344 0 0
11:55 am 11:55 Mostly Cloudy 39 4 19 -7 45 45 WNW 23 37 30 1016 10 16.09344 0 0
12:15 pm 12:15 Cloudy 41 5 19 -7 42 42 NNW 18 30 30 1016 10 16.09344 0 0
12:35 pm 12:35 Mostly Cloudy 41 5 21 -6 45 45 WNW 24 39 30 1016 10 16.09344 0 0
12:55 pm 12:55 Cloudy 37 3 21 -6 52 52 WNW 16 26 30 1016 10 16.09344 0 0
1:15 pm 13:15 Cloudy 41 5 21 -6 45 45 WNW 21 33 30 1016 10 16.09344 0 0
1:35 pm 13:35 Mostly Cloudy 41 5 21 -6 45 45 WNW 25 41 29.97 1015 10 16.09344 0 0
1:55 pm 13:55 Partly Cloudy 41 5 21 -6 45 45 WNW 24 39 30 1016 10 16.09344 0 0
2:15 pm 14:15 Partly Cloudy 41 5 21 -6 45 45 NW 23 37 30 1016 10 16.09344 0 0
2:35 pm 14:35 Partly Cloudy 41 5 21 -6 45 45 NW 25 41 30 1016 10 16.09344 0 0
2:55 pm 14:55 Partly Cloudy 41 5 19 -7 42 42 NW 23 37 30 1016 10 16.09344 0 0
3:15 pm 15:15 Partly Cloudy 41 5 21 -6 45 45 WNW 25 41 30.03 1017 10 16.09344 0 0
3:35 pm 15:35 Mostly Cloudy 37 3 19 -7 48 48 WNW 17 28 30.03 1017 10 16.09344 0 0
3:55 pm 15:55 Mostly Cloudy 37 3 21 -6 52 52 WNW 23 37 30.03 1017 10 16.09344 0 0
4:15 pm 16:15 Mostly Cloudy 39 4 21 -6 48 48 WNW 24 39 30.03 1017 10 16.09344 0 0
4:35 pm 16:35 Partly Cloudy 37 3 21 -6 52 52 NW 21 33 30.06 1018 10 16.09344 0 0
4:55 pm 16:55 Partly Cloudy 37 3 19 -7 48 48 NW 20 31 30.09 1019 10 16.09344 0 0
5:15 pm 17:15 Partly Cloudy 36 2 19 -7 52 52 WNW 16 26 30.09 1019 10 16.09344 0 0
5:35 pm 17:35 Partly Cloudy 36 2 19 -7 52 52 NW 14 22 30.09 1019 10 16.09344 0 0
5:55 pm 17:55 Partly Cloudy 36 2 19 -7 52 52 NW 18 30 30.09 1019 10 16.09344 0 0
6:15 pm 18:15 Clear 34 1 19 -7 56 56 WNW 12 19 30.12 1020 10 16.09344 0 0
6:35 pm 18:35 Clear 34 1 19 -7 56 56 NW 12 19 30.12 1020 10 16.09344 0 0
6:55 pm 18:55 Clear 34 1 19 -7 56 56 NW 13 20 30.15 1021 10 16.09344 0 0
7:15 pm 19:15 Clear 34 1 19 -7 56 56 NW 23 37 30.15 1021 10 16.09344 0 0
7:35 pm 19:35 Clear 32 0 18 -8 55 55 NW 13 20 30.15 1021 10 16.09344 0 0
7:55 pm 19:55 Clear 32 0 19 -7 60 60 NNW 8 13 30.18 1022 10 16.09344 0 0
8:15 pm 20:15 Clear 32 0 18 -8 55 55 NW 5 7 30.18 1022 10 16.09344 0 0
8:35 pm 20:35 Partly Cloudy 32 0 18 -8 55 55 WNW 8 13 30.21 1023 10 16.09344 0 0
8:55 pm 20:55 Partly Cloudy 32 0 18 -8 55 55 NW 16 26 30.21 1023 10 16.09344 0 0
9:15 pm 21:15 Clear 32 0 19 -7 60 60 NW 14 22 30.21 1023 10 16.09344 0 0
9:35 pm 21:35 Clear 32 0 19 -7 60 60 WNW 8 13 30.21 1023 10 16.09344 0 0
9:55 pm 21:55 Clear 32 0 18 -8 55 55 NNW 3 6 30.21 1023 10 16.09344 0 0
10:15 pm 22:15 Clear 32 0 19 -7 60 60 NW 5 7 30.24 1024 10 16.09344 0 0
10:35 pm 22:35 Clear 32 0 19 -7 60 60 W 3 6 30.24 1024 10 16.09344 0 0
10:55 pm 22:55 Clear 30 -1 19 -7 64 64 WNW 5 7 30.24 1024 10 16.09344 0 0
11:15 pm 23:15 Clear 30 -1 19 -7 64 64 WNW 7 11 30.24 1024 10 16.09344 0 0
11:35 pm 23:35 Clear 30 -1 19 -7 64 64 WNW 6 9 30.24 1024 10 16.09344 0 0
11:55 pm 23:55 Clear 32 0 19 -7 60 60 NNW 5 7 30.24 1024 10 16.09344 0 0

Powered by AerisWeather